TimeCDT,TemperatureF,Dew PointF,Humidity,Sea Level PressureIn,VisibilityMPH,Wind Direction,Wind SpeedMPH,Gust SpeedMPH,PrecipitationIn,Events,Conditions,WindDirDegrees,DateUTC
12:53 AM,53.1,48.9,86,30.01,10.0,Calm,Calm,-,N/A,,Clear,0,2012-11-03 05:53:00
1:53 AM,52.0,48.0,86,30.01,10.0,Calm,Calm,-,N/A,,Clear,0,2012-11-03 06:53:00
2:53 AM,50.0,48.0,93,30.01,10.0,Calm,Calm,-,N/A,,Clear,0,2012-11-03 07:53:00
3:53 AM,51.1,48.0,89,30.00,10.0,Calm,Calm,-,N/A,,Clear,0,2012-11-03 08:53:00
4:53 AM,48.9,46.9,93,30.02,10.0,Calm,Calm,-,N/A,,Clear,0,2012-11-03 09:53:00
5:53 AM,48.9,46.0,90,30.04,10.0,Calm,Calm,-,N/A,,Clear,0,2012-11-03 10:53:00
6:53 AM,48.9,46.0,90,30.05,10.0,Calm,Calm,-,N/A,,Clear,0,2012-11-03 11:53:00
7:53 AM,48.9,46.9,93,30.07,9.0,SW,3.5,-,N/A,,Clear,230,2012-11-03 12:53:00
8:53 AM,55.9,52.0,87,30.08,7.0,SSW,3.5,-,N/A,,Clear,210,2012-11-03 13:53:00
9:53 AM,66.0,57.0,73,30.08,10.0,SW,4.6,-,N/A,,Clear,230,2012-11-03 14:53:00
10:53 AM,73.9,60.1,62,30.07,10.0,Variable,3.5,-,N/A,,Clear,0,2012-11-03 15:53:00
11:53 AM,79.0,59.0,50,30.06,10.0,West,9.2,-,N/A,,Clear,270,2012-11-03 16:53:00
12:53 PM,82.0,57.9,44,30.03,10.0,West,9.2,-,N/A,,Clear,270,2012-11-03 17:53:00
1:53 PM,82.9,55.9,39,30.00,10.0,West,6.9,17.3,N/A,,Clear,260,2012-11-03 18:53:00
2:53 PM,82.9,57.0,41,29.98,10.0,West,9.2,17.3,N/A,,Partly Cloudy,260,2012-11-03 19:53:00
3:53 PM,82.9,55.9,39,29.97,10.0,West,9.2,16.1,N/A,,Clear,260,2012-11-03 20:53:00
4:53 PM,80.1,57.9,47,29.96,10.0,WSW,9.2,-,N/A,,Clear,250,2012-11-03 21:53:00
5:53 PM,75.9,57.9,54,29.95,10.0,SW,6.9,-,N/A,,Clear,230,2012-11-03 22:53:00
6:39 PM,73.4,57.2,57,29.95,10.0,SW,5.8,-,N/A,Thunderstorm,Thunderstorm,230,2012-11-03 23:39:00
6:53 PM,72.0,57.9,61,29.96,10.0,WSW,6.9,-,N/A,,Clear,240,2012-11-03 23:53:00
7:53 PM,70.0,57.9,65,29.99,10.0,Calm,Calm,-,N/A,,Clear,0,2012-11-04 00:53:00
8:42 PM,66.2,57.2,73,30.00,10.0,Calm,Calm,-,N/A,Thunderstorm,Mostly Cloudy,0,2012-11-04 01:42:00
8:53 PM,64.0,57.9,80,30.00,10.0,SW,4.6,-,N/A,,Mostly Cloudy,230,2012-11-04 01:53:00
9:28 PM,66.2,59.0,78,30.03,10.0,North,5.8,-,N/A,Thunderstorm,Thunderstorm,10,2012-11-04 02:28:00
9:53 PM,66.9,59.0,76,30.03,10.0,North,4.6,-,N/A,,Overcast,350,2012-11-04 02:53:00
10:07 PM,69.8,57.2,64,30.04,10.0,NNW,3.5,-,N/A,Thunderstorm,Thunderstorm,340,2012-11-04 03:07:00
10:23 PM,69.8,57.2,64,30.05,10.0,NW,4.6,-,N/A,,Overcast,320,2012-11-04 03:23:00
10:53 PM,66.9,57.0,70,30.03,10.0,NW,5.8,-,N/A,,Mostly Cloudy,310,2012-11-04 03:53:00
11:53 PM,64.9,57.9,78,30.05,10.0,Variable,5.8,-,N/A,,Mostly Cloudy,0,2012-11-04 04:53:00